This is the latest recevied weather packets stored in our database for station/object HB9FHL-13. If no packets are shown the sender has not sent any weather packets the latest 10 day(s).
| Time | Temp. | Humidity | Pressure | Rain* | Wind** | Luminosity | Snow |
|---|---|---|---|---|---|---|---|
| 1788204779 | 19.44° C | - | 1021.6 hPa | 3.3 mm | - | - | - |
| 1788204477 | 19.44° C | - | 1023.6 hPa | 3.3 mm | - | - | - |
| 1788204176 | 19.44° C | - | 1021.1 hPa | 3.3 mm | - | - | - |
| 1788203991 | 18.89° C | - | 1023.6 hPa | 3.3 mm | - | - | - |
| 1788203873 | 18.89° C | - | 1023.6 hPa | 3.3 mm | - | - | - |
| 1788203573 | 19.44° C | - | 1023.4 hPa | 3.3 mm | - | - | - |
| 1788203272 | 20° C | - | 1020.3 hPa | 3.3 mm | - | - | - |
| 1788202972 | 20° C | - | 1017.1 hPa | 3.3 mm | - | - | - |
| 1788202671 | 19.44° C | - | 1024.6 hPa | 3.3 mm | - | - | - |
| 1788202371 | 20° C | - | 1022.4 hPa | 3.3 mm | - | - | - |
| 1788202070 | 19.44° C | - | 1024 hPa | 3.3 mm | - | - | - |
| 1788201770 | 20.56° C | - | 1025.1 hPa | 3.3 mm | - | - | - |
| 1788201469 | 20° C | - | 1023.2 hPa | 3.3 mm | - | - | - |
| 1788201169 | 19.44° C | - | 1021.2 hPa | 3.3 mm | - | - | - |
| 1788200868 | 20.56° C | - | 1022.4 hPa | 3.3 mm | - | - | - |
| 1788200568 | 20° C | - | 1019.6 hPa | 3.3 mm | - | - | - |
| 1788200267 | 20° C | - | 1024.2 hPa | 3.3 mm | - | - | - |
| 1788199967 | 20° C | - | 1020.5 hPa | 3.3 mm | - | - | - |
| 1788199697 | 21.11° C | - | 1023.6 hPa | 3.3 mm | - | - | - |
| 1788199666 | 21.11° C | - | 1023.6 hPa | 3.3 mm | - | - | - |
| 1788199366 | 20° C | - | 1024.7 hPa | 3.3 mm | - | - | - |
| 1788199065 | 20.56° C | - | 1024 hPa | 3.3 mm | - | - | - |
| 1788198765 | 20.56° C | - | 1023.7 hPa | 3.3 mm | - | - | - |
| 1788198464 | 20.56° C | - | 1021 hPa | 3.3 mm | - | - | - |
| 1788198164 | 20.56° C | - | 1019.7 hPa | 3.3 mm | - | - | - |
* Rain since midnight (hover to see other rain measurements)
** Current wind speed in m/s (hover to see current wind gust speed)